Alma, GA

4:47 PM EST on January 17, 2017 (GMT -0500)
Bacon County

Weather History for KAMG - March, 2014

Change the Weather History Date:

Sunday, March 16, 2014

  Actual Average Record
Temperature  
Mean Temperature 63 °F 60 °F  
Max Temperature 75 °F 72 °F 86 °F (1955)
Min Temperature 51 °F 48 °F 29 °F (1951)
Degree Days  
Heating Degree Days 2 6  
Month to date heating degree days 173 117  
Since 1 July heating degree days 1640 1518  
Cooling Degree Days 0 1  
Month to date cooling degree days 0 16  
Year to date cooling degree days 8 32  
Growing Degree Days 12 (Base 50)    
Moisture  
Dew Point 57 °F    
Average Humidity 75    
Maximum Humidity 97    
Minimum Humidity 53    
Precipitation  
Precipitation 1.06 in 0.16 in 2.02 in (1975)
Month to date precipitation 2.20 2.58  
Year to date precipitation 5.72 10.64  
Snow  
Snow 0.00 in 0.00 in 0.00 in ()
Month to date snowfall 0.0 0.0  
Since 1 July snowfall T 0.1  
Snow Depth 0.00 in    
Sea Level Pressure  
Sea Level Pressure 29.82 in    
Wind  
Wind Speed 6 mph (South)    
Max Wind Speed 22 mph    
Max Gust Speed 31 mph    
Visibility 6 miles    
Events Rain    
T = Trace of Precipitation, MM = Missing Value Source: NWS Daily Summary

Daily Weather History Graph

Daily Weather History Graph

Search for Another Location

Airport or City:

Trip Planner

Search our weather history database for the weather conditions in past years. The results will help you decide how hot, cold, wet, or windy it might be!

Date:

Astronomy

Mar. 16, 2014 Rise Set
Actual Time 7:38 AM EDT 7:38 PM EDT
Civil Twilight 7:14 AM EDT 8:03 PM EDT
Nautical Twilight 6:46 AM EDT 8:31 PM EDT
Astronomical Twilight 6:18 AM EDT 8:59 PM EDT
Moon 7:52 PM EDT (3/16) 7:22 AM EDT (3/16)
Length of Visible Light 12h 48m
Length of Day
11h 59m
Full, 100% of the Moon is Illuminated
Mar 16
Full
Mar 16
Full
Mar 23
Last Quarter
Mar 30
New
Apr 7
First Quarter

Hourly Weather History & Observations

Time (EDT) Temp. Dew Point Humidity Pressure Visibility Wind Dir Wind Speed Gust Speed Precip Events Conditions
12:53 AM 55.0 °F 45.0 °F 69% 30.02 in 10.0 mi Calm Calm - N/A   Clear
1:53 AM 54.0 °F 45.0 °F 72% 30.01 in 10.0 mi Calm Calm - N/A   Clear
2:53 AM 51.1 °F 45.0 °F 80% 30.01 in 10.0 mi Calm Calm - N/A   Clear
3:53 AM 55.0 °F 46.0 °F 72% 29.97 in 10.0 mi Calm Calm - N/A   Mostly Cloudy
4:53 AM 57.9 °F 48.9 °F 72% 29.93 in 10.0 mi SE 4.6 mph - N/A   Mostly Cloudy
5:53 AM 57.0 °F 48.9 °F 74% 29.89 in 10.0 mi SE 4.6 mph - N/A   Clear
6:53 AM 57.0 °F 50.0 °F 77% 29.88 in 10.0 mi SSE 3.5 mph - N/A   Clear
7:53 AM 55.0 °F 50.0 °F 83% 29.89 in 10.0 mi Calm Calm - N/A   Scattered Clouds
8:53 AM 59.0 °F 54.0 °F 83% 29.88 in 10.0 mi SE 5.8 mph - N/A   Scattered Clouds
9:53 AM 64.0 °F 55.9 °F 75% 29.85 in 10.0 mi South 11.5 mph - N/A   Scattered Clouds
10:53 AM 68.0 °F 55.9 °F 65% 29.81 in 10.0 mi SSE 17.3 mph 27.6 mph N/A   Partly Cloudy
11:53 AM 71.1 °F 55.0 °F 57% 29.81 in 10.0 mi South 21.9 mph 29.9 mph N/A   Partly Cloudy
12:53 PM 73.0 °F 55.0 °F 53% 29.79 in 10.0 mi South 12.7 mph 28.8 mph N/A   Partly Cloudy
1:53 PM 73.9 °F 55.0 °F 52% 29.78 in 10.0 mi SSW 10.4 mph 17.3 mph N/A   Mostly Cloudy
2:53 PM 73.9 °F 55.0 °F 52% 29.75 in 10.0 mi WSW 10.4 mph - N/A   Overcast
3:02 PM 72.0 °F 55.9 °F 57% 29.78 in 1.5 mi West 8.1 mph - 0.10 in Rain Heavy Rain
3:11 PM 68.0 °F 57.9 °F 70% 29.78 in 0.8 mi West 6.9 mph - 0.18 in Rain Heavy Rain
3:17 PM 66.9 °F 60.1 °F 79% 29.78 in 2.0 mi WNW 5.8 mph - 0.19 in Rain Rain
3:30 PM 66.0 °F 61.0 °F 84% 29.79 in 3.0 mi West 5.8 mph - 0.22 in Rain Rain
3:34 PM 66.0 °F 61.0 °F 84% 29.78 in 1.8 mi WNW 3.5 mph - 0.24 in Rain Rain
3:53 PM 66.0 °F 61.0 °F 84% 29.77 in 2.5 mi Variable 6.9 mph - 0.30 in Rain Light Rain
3:55 PM 66.0 °F 61.0 °F 84% 29.78 in 3.0 mi SSW 6.9 mph - 0.00 in Rain Light Rain
4:11 PM 64.9 °F 61.0 °F 87% 29.77 in 4.0 mi SW 3.5 mph - 0.02 in Rain Light Rain
4:19 PM 64.9 °F 61.0 °F 87% 29.78 in 3.0 mi SW 4.6 mph - 0.04 in Rain Rain
4:29 PM 64.0 °F 61.0 °F 90% 29.77 in 3.0 mi WNW 6.9 mph - 0.06 in Rain Rain
4:53 PM 63.0 °F 60.1 °F 90% 29.75 in 4.0 mi Variable 4.6 mph - 0.09 in Rain Light Rain
5:49 PM 62.6 °F 60.8 °F 94% 29.76 in 4.0 mi East 3.5 mph - 0.05 in Rain Light Rain
5:53 PM 62.1 °F 60.1 °F 93% 29.76 in 5.0 mi East 3.5 mph - 0.05 in Rain Light Rain
6:11 PM 62.1 °F 60.1 °F 93% 29.77 in 5.0 mi South 3.5 mph - 0.01 in Rain Light Rain
6:51 PM 62.6 °F 60.8 °F 94% 29.78 in 2.5 mi SE 4.6 mph - 0.04 in Rain Rain
6:53 PM 63.0 °F 60.1 °F 90% 29.78 in 2.5 mi SE 4.6 mph - 0.05 in Rain Rain
7:14 PM 63.0 °F 60.1 °F 90% 29.78 in 2.0 mi SSE 4.6 mph - 0.05 in Rain Rain
7:22 PM 63.0 °F 60.1 °F 90% 29.77 in 3.0 mi SSE 5.8 mph - 0.06 in Rain Light Rain
7:33 PM 63.0 °F 61.0 °F 93% 29.78 in 6.0 mi South 6.9 mph - 0.07 in Rain Light Rain
7:53 PM 63.0 °F 60.1 °F 90% 29.78 in 8.0 mi South 6.9 mph - 0.09 in Rain Light Rain
8:03 PM 63.0 °F 60.1 °F 90% 29.80 in 7.0 mi South 5.8 mph - 0.01 in Rain Light Rain
8:16 PM 62.1 °F 60.1 °F 93% 29.79 in 5.0 mi South 8.1 mph - 0.04 in Rain Rain
8:29 PM 62.1 °F 60.1 °F 93% 29.79 in 5.0 mi SSW 8.1 mph - 0.07 in Rain Rain
8:42 PM 62.1 °F 60.1 °F 93% 29.80 in 8.0 mi SSW 4.6 mph - 0.09 in Rain Light Rain
8:53 PM 62.1 °F 59.0 °F 90% 29.79 in 8.0 mi South 5.8 mph - 0.10 in Rain Light Rain
9:00 PM 62.1 °F 59.0 °F 90% 29.80 in 8.0 mi South 5.8 mph - 0.00 in Rain Light Rain
9:32 PM 61.0 °F 59.0 °F 93% 29.80 in 10.0 mi South 6.9 mph - 0.00 in Rain Light Rain
9:53 PM 61.0 °F 59.0 °F 93% 29.80 in 8.0 mi South 5.8 mph - 0.01 in Rain Light Rain
10:30 PM 61.0 °F 57.9 °F 90% 29.80 in 5.0 mi South 4.6 mph - 0.04 in Rain Rain
10:53 PM 61.0 °F 57.9 °F 90% 29.81 in 6.0 mi SSW 5.8 mph - 0.07 in Rain Light Rain
11:53 PM 60.1 °F 57.9 °F 93% 29.81 in 3.0 mi South 3.5 mph - 0.14 in Rain Rain